Location: Saluda
(35.2377°N, 82.3468°W)
Time: 05:36:47
(UTC+00:00)

Vanguard 2 Rocket - Pass Details

Date: 05 October 2022
Orbit: 555 x 3321 km, 32.9° (Epoch: 04 December)

Event Time Altitude Azimuth Distance (km) Brightness Sun altitude
Rises 22:26:24 0° 181° (S) 7,135 11.6 7.5°
Reaches altitude 10° 22:36:39 10° 155° (SSE) 6,270 11.0 5.4°
Maximum altitude 22:42:50 12° 137° (SE) 6,009 10.8 4.2°
Drops below altitude 10° 22:48:45 10° 118° (ESE) 6,012 10.6 3.0°
Sets 22:57:39 0° 93° (E) 6,537 10.6 1.2°
